Time,TemperatureF,DewpointF,PressureIn,WindDirection,WindDirectionDegrees,WindSpeedMPH,WindSpeedGustMPH,Humidity,HourlyPrecipIn,Conditions,Clouds,dailyrainin,SoftwareType,DateUTC
2013-05-31 08:52:00,70.0,66.0,29.84,SSE,163,5.0,-999.0,88,-99.99,,,-99.99,,2013-05-31 13:52:00,
2013-05-31 09:02:00,70.0,66.0,29.84,SSE,163,5.0,-999.0,88,-99.99,,,-99.99,,2013-05-31 14:02:00,
2013-05-31 09:11:00,70.0,66.0,29.84,SSE,163,5.0,-999.0,88,-99.99,,,-99.99,,2013-05-31 14:11:00,
2013-05-31 09:21:00,71.0,67.0,29.83,SSE,167,8.0,-999.0,87,-99.99,,,-99.99,,2013-05-31 14:21:00,
2013-05-31 09:32:00,71.0,67.0,29.83,SSE,167,8.0,-999.0,87,-99.99,,,-99.99,,2013-05-31 14:32:00,
2013-05-31 09:42:00,71.0,67.0,29.83,SSE,167,8.0,-999.0,87,-99.99,,,-99.99,,2013-05-31 14:42:00,
2013-05-31 09:52:00,72.0,68.0,29.83,South,175,8.0,-999.0,86,-99.99,,,-99.99,,2013-05-31 14:52:00,
2013-05-31 10:01:00,72.0,68.0,29.83,South,175,8.0,-999.0,86,-99.99,,,-99.99,,2013-05-31 15:01:00,
2013-05-31 10:11:00,72.0,68.0,29.83,South,175,8.0,-999.0,86,-99.99,,,-99.99,,2013-05-31 15:11:00,
2013-05-31 10:21:00,73.0,68.0,29.83,SW,218,6.0,-999.0,84,-99.99,,,-99.99,,2013-05-31 15:21:00,
2013-05-31 10:33:00,73.0,68.0,29.83,SW,218,6.0,-999.0,84,-99.99,,,-99.99,,2013-05-31 15:33:00,
2013-05-31 10:43:00,73.0,68.0,29.83,SW,218,6.0,-999.0,84,-99.99,,,-99.99,,2013-05-31 15:43:00,
2013-05-31 10:53:00,75.0,69.0,29.83,SSW,193,8.0,-999.0,81,-99.99,,,-99.99,,2013-05-31 15:53:00,
2013-05-31 11:03:00,75.0,69.0,29.83,SSW,193,8.0,-999.0,81,-99.99,,,-99.99,,2013-05-31 16:03:00,
2013-05-31 11:12:00,75.0,69.0,29.83,SSW,193,8.0,-999.0,81,-99.99,,,-99.99,,2013-05-31 16:12:00,
2013-05-31 11:22:00,78.0,70.0,29.80,South,173,10.0,-999.0,77,-99.99,,,-99.99,,2013-05-31 16:22:00,
2013-05-31 11:33:00,78.0,70.0,29.80,South,173,10.0,-999.0,77,-99.99,,,-99.99,,2013-05-31 16:33:00,
2013-05-31 11:42:00,78.0,70.0,29.80,South,173,10.0,-999.0,77,-99.99,,,-99.99,,2013-05-31 16:42:00,
2013-05-31 11:52:00,77.0,70.0,29.81,SSE,159,9.0,-999.0,80,-99.99,,,-99.99,,2013-05-31 16:52:00,
2013-05-31 12:02:00,77.0,70.0,29.81,SSE,159,9.0,-999.0,80,-99.99,,,-99.99,,2013-05-31 17:02:00,
2013-05-31 12:12:00,77.0,70.0,29.81,SSE,159,9.0,-999.0,80,-99.99,,,-99.99,,2013-05-31 17:12:00,
2013-05-31 12:22:00,79.0,70.0,29.80,SSE,168,9.0,-999.0,75,-99.99,,,-99.99,,2013-05-31 17:22:00,
2013-05-31 12:32:00,79.0,70.0,29.80,SSE,168,9.0,-999.0,75,-99.99,,,-99.99,,2013-05-31 17:32:00,
2013-05-31 12:42:00,79.0,70.0,29.80,SSE,168,9.0,-999.0,75,-99.99,,,-99.99,,2013-05-31 17:42:00,
2013-05-31 12:52:00,80.0,71.0,29.80,South,180,9.0,-999.0,74,-99.99,,,-99.99,,2013-05-31 17:52:00,
2013-05-31 13:01:00,80.0,71.0,29.80,South,180,9.0,-999.0,74,-99.99,,,-99.99,,2013-05-31 18:01:00,
2013-05-31 13:11:00,80.0,71.0,29.80,South,180,9.0,-999.0,74,-99.99,,,-99.99,,2013-05-31 18:11:00,
2013-05-31 13:22:00,80.0,71.0,29.80,SSE,157,6.0,-999.0,75,-99.99,,,-99.99,,2013-05-31 18:22:00,
2013-05-31 13:31:00,80.0,71.0,29.80,SSE,157,6.0,-999.0,75,-99.99,,,-99.99,,2013-05-31 18:31:00,
2013-05-31 13:42:00,80.0,71.0,29.80,SSE,157,6.0,-999.0,75,-99.99,,,-99.99,,2013-05-31 18:42:00,
2013-05-31 13:52:00,81.0,72.0,29.80,SSW,203,7.0,-999.0,73,-99.99,,,-99.99,,2013-05-31 18:52:00,
2013-05-31 14:02:00,81.0,72.0,29.80,SSW,203,7.0,-999.0,73,-99.99,,,-99.99,,2013-05-31 19:02:00,
2013-05-31 14:11:00,81.0,72.0,29.80,SSW,203,7.0,-999.0,73,-99.99,,,-99.99,,2013-05-31 19:11:00,
2013-05-31 14:22:00,81.0,72.0,29.79,SSE,161,6.0,-999.0,73,-99.99,,,-99.99,,2013-05-31 19:22:00,
2013-05-31 14:32:00,81.0,72.0,29.79,SSE,161,6.0,-999.0,73,-99.99,,,-99.99,,2013-05-31 19:32:00,
2013-05-31 14:42:00,81.0,72.0,29.79,SSE,161,6.0,-999.0,73,-99.99,,,-99.99,,2013-05-31 19:42:00,
2013-05-31 14:52:00,81.0,71.0,29.78,SSE,166,8.0,-999.0,72,-99.99,,,-99.99,,2013-05-31 19:52:00,
2013-05-31 15:01:00,81.0,71.0,29.78,SSE,166,8.0,-999.0,72,-99.99,,,-99.99,,2013-05-31 20:01:00,
2013-05-31 15:11:00,81.0,71.0,29.78,SSE,166,8.0,-999.0,72,-99.99,,,-99.99,,2013-05-31 20:11:00,
2013-05-31 15:22:00,82.0,71.0,29.80,South,172,7.0,-999.0,70,-99.99,,,-99.99,,2013-05-31 20:22:00,
2013-05-31 15:31:00,82.0,71.0,29.80,South,172,7.0,-999.0,70,-99.99,,,-99.99,,2013-05-31 20:31:00,
2013-05-31 15:42:00,82.0,71.0,29.80,South,172,7.0,-999.0,70,-99.99,,,-99.99,,2013-05-31 20:42:00,
2013-05-31 15:52:00,82.0,72.0,29.78,South,186,6.0,-999.0,71,-99.99,,,-99.99,,2013-05-31 20:52:00,
2013-05-31 16:01:00,82.0,72.0,29.78,South,186,6.0,-999.0,71,-99.99,,,-99.99,,2013-05-31 21:01:00,
2013-05-31 16:11:00,82.0,72.0,29.78,South,186,6.0,-999.0,71,-99.99,,,-99.99,,2013-05-31 21:11:00,
2013-05-31 16:22:00,82.0,70.0,29.76,South,169,9.0,-999.0,67,-99.99,,,-99.99,,2013-05-31 21:22:00,
2013-05-31 16:32:00,82.0,70.0,29.76,South,169,9.0,-999.0,67,-99.99,,,-99.99,,2013-05-31 21:32:00,
2013-05-31 16:43:00,81.0,72.0,29.75,South,169,8.0,-999.0,73,-99.99,,,-99.99,,2013-05-31 21:43:00,
2013-05-31 16:54:00,81.0,72.0,29.75,South,169,8.0,-999.0,73,-99.99,,,-99.99,,2013-05-31 21:54:00,
2013-05-31 17:02:00,81.0,72.0,29.75,South,169,8.0,-999.0,73,-99.99,,,-99.99,,2013-05-31 22:02:00,
2013-05-31 17:12:00,81.0,72.0,29.75,South,169,8.0,-999.0,73,-99.99,,,-99.99,,2013-05-31 22:12:00,
2013-05-31 17:22:00,82.0,72.0,29.74,SSE,149,8.0,-999.0,71,-99.99,,,-99.99,,2013-05-31 22:22:00,
2013-05-31 17:33:00,82.0,72.0,29.74,SSE,149,8.0,-999.0,71,-99.99,,,-99.99,,2013-05-31 22:33:00,
2013-05-31 17:42:00,81.0,71.0,29.73,South,186,6.0,-999.0,71,-99.99,,,-99.99,,2013-05-31 22:42:00,
2013-05-31 17:53:00,81.0,71.0,29.73,South,186,6.0,-999.0,71,-99.99,,,-99.99,,2013-05-31 22:53:00,
2013-05-31 18:02:00,81.0,71.0,29.73,South,186,6.0,-999.0,71,-99.99,,,-99.99,,2013-05-31 23:02:00,
2013-05-31 18:12:00,81.0,71.0,29.73,South,186,6.0,-999.0,71,-99.99,,,-99.99,,2013-05-31 23:12:00,
2013-05-31 18:21:00,80.0,71.0,29.73,SSE,163,5.0,-999.0,74,-99.99,,,-99.99,,2013-05-31 23:21:00,
2013-05-31 18:32:00,80.0,71.0,29.73,SSE,163,5.0,-999.0,74,-99.99,,,-99.99,,2013-05-31 23:32:00,
2013-05-31 18:42:00,80.0,72.0,29.72,South,186,6.0,-999.0,76,-99.99,,,-99.99,,2013-05-31 23:42:00,
2013-05-31 18:52:00,80.0,72.0,29.72,South,186,6.0,-999.0,76,-99.99,,,-99.99,,2013-05-31 23:52:00,
2013-05-31 19:01:00,80.0,72.0,29.72,South,186,6.0,-999.0,76,-99.99,,,-99.99,,2013-06-01 00:01:00,
2013-05-31 19:11:00,80.0,72.0,29.72,South,186,6.0,-999.0,76,-99.99,,,-99.99,,2013-06-01 00:11:00,
2013-05-31 19:22:00,79.0,72.0,29.70,SSE,153,3.0,-999.0,78,-99.99,,,-99.99,,2013-06-01 00:22:00,
2013-05-31 19:32:00,79.0,72.0,29.70,SSE,153,3.0,-999.0,78,-99.99,,,-99.99,,2013-06-01 00:32:00,
2013-05-31 19:42:00,78.0,71.0,29.70,SSE,153,1.0,-999.0,79,-99.99,,,-99.99,,2013-06-01 00:42:00,
2013-05-31 19:52:00,78.0,71.0,29.70,SSE,153,1.0,-999.0,79,-99.99,,,-99.99,,2013-06-01 00:52:00,
2013-05-31 20:00:00,77.0,70.0,29.75,NNW,348,1.0,-999.0,79,-99.99,,,-99.99,,2013-06-01 01:00:00,
2013-05-31 20:01:00,78.0,71.0,29.70,SSE,153,1.0,-999.0,79,-99.99,,,-99.99,,2013-06-01 01:01:00,
2013-05-31 20:11:00,78.0,71.0,29.70,SSE,153,1.0,-999.0,79,-99.99,,,-99.99,,2013-06-01 01:11:00,
2013-05-31 20:21:00,77.0,70.0,29.75,NNW,348,1.0,-999.0,79,-99.99,,,-99.99,,2013-06-01 01:21:00,
2013-05-31 20:32:00,77.0,70.0,29.75,NNW,348,1.0,-999.0,79,-99.99,,,-99.99,,2013-06-01 01:32:00,
2013-05-31 20:42:00,77.0,70.0,29.75,NNW,348,1.0,-999.0,79,-99.99,,,-99.99,,2013-06-01 01:42:00,
2013-05-31 20:52:00,77.0,70.0,29.75,NNW,348,1.0,-999.0,79,-99.99,,,-99.99,,2013-06-01 01:52:00,